CAPE
2927 2407 2379 2201 2545 2062 2613 2401 2123 2147 2117 1856 1855 1651 1585 1599 1456 743 831 194 113 161 843 735 780 707 763 956 759 617 534 508 429 180 226 200 159 112 52 25 18 13 1
2871 2347 2351 2205 1965 2256 2840 2380 2332 2205 2215 2079 1954 1690 1657 1586 1327 1033 733 331 37 32 435 813 860 700 976 845 656 528 479 427 295 115 57 9 3 5 12 12 12 21 14
3029 3008 2437 2531 2052 2223 2718 2600 2657 2404 2137 1803 1782 1873 1486 1631 1320 1041 1026 549 94 31 158 237 343 189 1084 1148 704 423 301 188 156 65 24 3 0 4 7 10 20 21 19
2955 3130 2459 2259 2285 2189 2436 2466 2397 2392 2035 1965 1599 1454 1653 1457 1199 1035 965 720 180 208 151 175 159 86 731 1084 713 360 217 161 94 45 22 11 4 7 13 18 23 17 23
2432 2934 2619 2237 2411 2140 2266 2068 2126 2075 2015 1752 1523 1395 1411 1247 1196 830 619 442 152 152 315 139 61 46 48 482 597 436 241 95 68 41 29 16 21 16 22 19 5 22 22
2838 2932 2324 2359 2242 1806 2132 1653 1517 1611 1557 1623 1262 930 1035 1077 923 583 460 215 90 135 188 173 40 82 77 170 247 552 290 95 33 28 16 22 32 25 24 17 4 6 3
2983 2687 2383 2443 2197 1651 2033 1542 1632 1760 1283 1337 1059 591 736 723 834 536 297 145 17 3 118 106 28 56 110 131 171 359 202 175 46 29 29 27 37 34 30 24 5 3 2
2678 2183 2308 2283 2157 1791 2059 1542 1828 1270 1217 975 892 741 339 141 175 389 206 53 30 8 38 86 93 95 107 226 162 134 178 198 64 32 36 34 36 36 33 31 9 4 21
2723 2176 2345 2381 2012 1849 1734 1505 1415 1046 932 810 816 495 388 144 51 127 229 139 51 10 9 29 31 145 222 382 89 58 29 25 50 56 40 48 39 36 36 33 13 6 29
2248 2326 2493 2120 1780 1810 1652 1509 1380 1224 1240 691 709 714 763 443 218 12 17 166 106 51 21 35 46 51 70 260 143 65 33 14 18 44 45 47 37 39 33 29 30 11 38
2300 2347 2437 1943 1610 1694 1491 1311 1237 1359 1450 985 641 441 919 658 394 250 7 16 59 95 64 48 26 21 48 33 107 90 6 7 14 30 49 48 58 43 40 37 33 25 36
2138 2064 1929 1732 1588 1802 1397 1280 1427 1672 1675 1362 1139 879 773 443 246 337 322 100 34 66 60 40 45 21 24 40 32 3 7 0 5 17 26 43 41 40 41 44 40 34 33
1923 1646 1641 1692 1633 1459 722 244 573 1215 1555 1399 1205 1086 533 900 531 332 407 281 12 5 18 38 43 62 38 59 28 27 4 3 0 13 15 32 30 25 29 33 30 29 25
2021 1443 1597 1856 1377 1273 912 1103 1442 1557 1340 1147 1195 1163 875 702 562 353 267 312 53 0 4 6 22 18 12 7 27 17 4 0 1 0 9 15 24 14 13 12 12 16 27
1928 1506 1493 1377 1514 1512 1086 1094 815 981 1220 1430 1617 971 580 290 344 236 219 71 40 17 12 46 20 2 1 6 12 36 2 3 1 0 0 0 10 11 10 5 2 4 10
2040 1868 1648 1275 1148 812 970 875 435 762 993 1477 1471 1198 773 413 275 154 128 53 66 13 13 23 6 3 1 3 11 2 1 12 0 0 0 0 0 0 0 1 2 2 2
1723 1481 1340 1168 792 706 276 256 436 269 661 930 589 451 305 291 381 233 92 227 31 25 17 90 22 32 4 0 1 1 4 1 2 3 0 0 0 0 0 0 0 0 0
1409 1167 904 1023 858 626 600 130 64 205 431 606 513 334 200 236 329 238 224 22 21 185 108 18 15 0 2 5 8 6 2 4 0 18 6 1 2 5 14 11 1 0 0
904 808 849 815 862 729 633 392 46 21 359 635 552 327 155 260 140 142 165 61 109 95 87 56 9 9 8 27 2 2 0 0 1 37 53 32 26 30 22 35 18 11 10
498 553 583 622 454 482 573 651 334 253 294 371 394 330 295 164 85 108 30 33 55 46 10 39 31 2 13 7 0 0 0 0 2 47 69 68 64 59 65 65 47 32 24
100 211 376 418 193 217 244 179 157 112 98 121 89 90 97 108 45 51 37 26 29 35 4 23 0 13 1 0 1 0 0 0 14 53 80 70 79 77 70 67 53 25 31
25 29 119 107 207 75 61 37 37 208 132 40 22 33 188 5 15 12 6 5 10 4 1 0 1 1 4 0 0 2 2 0 0 19 45 60 65 68 67 49 18 38 2
10 49 71 98 33 31 63 65 41 18 38 54 57 39 40 68 15 7 14 1 2 4 8 0 0 0 1 0 0 0 0 0 0 0 29 39 70 64 51 17 49 12 2
0 23 17 57 93 45 39 28 18 3 20 83 16 32 5 12 12 4 0 0 4 2 0 5 0 0 0 0 0 0 0 0 0 0 23 34 24 17 18 5 6 0 0
0 0 0 13 46 12 4 9 30 10 19 15 39 24 25 25 8 1 2 0 0 0 0 7 9 0 10 9 0 0 0 0 0 0 0 1 3 0 0 0 2 3 3
0 0 0 0 0 0 0 0 0 28 30 21 11 8 3 9 5 14 4 1 0 0 0 0 0 14 11 0 24 18 2 0 0 0 0 0 0 0 0 1 1 3 1
CIN
0 0 0 0 0 -5 0 0 -8 -4 -1 -2 -1 0 0 -1 0 -9 -33 -5 -12 -57 -14 -5 0 -2 -8 0 0 0 0 0 0 -2 -1 -10 -12 -29 -37 -2 -3 -4 0
0 0 0 0 -1 0 -2 0 0 -2 -3 0 0 -1 0 0 -1 -7 -1 -4 -30 -23 -34 -10 0 0 -1 0 -3 0 0 0 0 -2 -25 -20 -2 -5 -4 -5 -10 -2 0
-5 0 -6 -3 -1 0 -8 -13 -1 0 0 0 0 0 0 0 -3 0 -4 0 -14 -54 -57 -39 -20 -10 0 0 0 -5 -11 -13 0 -9 -14 -17 0 -7 -8 -10 -6 -1 0
-8 0 -1 -30 -17 0 -1 -2 0 0 0 0 0 0 0 -1 -1 0 -2 0 0 0 -28 -56 -11 -6 -1 0 0 -9 -15 -8 -8 -19 -13 -21 -16 -6 -6 -4 -3 -1 -1
-27 -13 -4 -46 -10 -6 -1 -8 0 0 0 0 0 0 0 0 -1 0 0 0 0 0 0 -26 -18 -51 -4 -15 0 -4 -2 -5 -2 -1 -5 -14 -13 -10 -7 -2 0 -1 -1
-20 -10 -33 -41 -33 -32 -9 -34 -29 -10 -7 0 0 -6 0 0 0 -2 -1 -2 -3 -2 -2 -6 -57 -28 0 -14 -26 0 0 0 -2 -8 -13 -12 -13 -10 -7 -1 0 0 0
-1 -10 -27 -19 -45 -73 -23 -42 -19 -2 -34 0 0 -15 0 0 0 0 0 0 0 -3 -53 -14 -57 -34 -2 -8 -19 -4 0 0 0 -4 -13 -6 -11 -8 -4 -3 0 0 0
-3 -19 -20 -29 -48 -77 -21 -33 -18 -45 -23 -26 -3 -3 -7 -36 -9 -1 -3 -25 -37 -45 -13 -21 0 -3 -1 0 -2 -8 -1 0 -3 -1 -5 -7 -10 -7 -4 -1 0 0 0
0 -14 -27 -11 -91 -90 -61 -54 -45 -78 -70 -51 -16 -6 -4 -17 -50 -16 -3 -11 -29 -58 -31 -47 0 -1 -2 0 -6 -8 -5 -3 -3 0 -5 -5 -8 -6 -3 -2 0 0 -1
-1 -3 -8 -3 -91 -90 -61 -64 -49 -31 -15 -82 -33 -13 0 -2 -2 -3 -5 -8 -25 -37 -37 -18 -13 0 0 -5 -4 -5 -5 -2 -7 -8 -9 -5 -5 -7 -2 -2 -2 0 0
-6 -2 -2 -27 -109 -50 -64 -46 -4 0 0 -19 -72 -69 0 0 0 -1 -1 -47 -23 -28 -28 -29 -38 -6 -2 -3 -10 -10 -15 -12 -6 -11 -8 -5 -2 -8 -5 -2 -1 0 -1
-10 -7 0 -11 -71 -59 -76 -78 -53 0 0 -16 -22 -19 -7 -1 0 0 0 -12 -42 -34 -21 -19 -18 -27 -14 -3 0 0 -1 0 -9 -10 -18 -9 -10 -9 -11 -3 -1 -1 -1
-9 -32 -8 -4 -42 -87 -106 -397 -308 0 0 -3 -34 -19 -33 0 0 -1 -1 0 -21 -25 -8 -8 -20 -8 -19 -15 -1 0 0 0 0 -11 -14 -15 -13 -24 -23 -13 -5 -3 -2
-1 -36 -5 0 -34 -46 -108 -52 -58 0 -2 -1 -15 -10 -7 0 0 -1 -1 0 0 0 -13 -12 -11 -15 -37 -9 0 0 0 -1 0 -3 -16 -14 -9 -21 -26 -25 -26 -13 -8
0 -32 -5 -4 0 0 -28 -26 -25 0 0 0 -2 -5 -46 -21 0 -2 -3 -3 -1 -1 -7 -1 -3 -10 -4 -9 0 -3 0 0 0 0 0 -1 -9 -10 -6 -19 -20 -18 -18
0 -1 -1 -1 -2 -12 -37 -22 -11 0 0 0 0 -3 -9 0 0 -2 -1 -3 0 0 0 -13 -9 -8 -3 -2 -1 -2 -1 0 0 0 0 0 0 0 0 -6 -6 -9 -8
0 -1 -3 -6 -24 -53 -113 -93 -59 -38 -2 0 -15 -57 -36 -2 0 0 -4 0 -4 0 0 0 -1 -5 -2 0 -3 -1 0 0 0 0 0 0 0 0 0 0 0 0 0
-8 -3 -25 -2 -9 -27 -14 -90 -38 -73 -2 0 -1 -26 -27 0 0 -4 0 -6 -19 0 0 0 0 0 -17 -17 -3 -4 0 0 0 -3 -16 -31 -40 -97 -112 -109 -45 0 0
0 -3 -6 0 0 -18 -64 -127 -190 0 -3 -1 0 -3 -38 0 -13 -15 -13 -40 -5 -6 0 0 0 -1 -1 0 -1 0 0 0 0 -13 -25 -5 -20 -39 -39 -33 -30 -29 -27
0 0 -2 0 -1 -16 -12 -4 -12 0 0 0 0 -1 -1 -18 -41 -25 -67 -33 -40 -8 -2 0 0 -1 -5 0 0 0 0 0 0 -9 -7 -2 -7 -8 -7 -12 -8 -11 -13
-5 0 0 0 -10 -7 -38 -89 -88 -7 -20 -5 -5 -27 -32 -35 -46 -54 -16 -29 -1 -11 0 0 0 0 0 0 0 0 0 0 0 -3 -4 -5 0 -1 -1 -1 -2 -6 -5
0 -2 0 0 0 -29 -86 -122 -97 -2 -9 -70 -68 -60 -8 -4 -6 -7 0 -3 -83 -3 0 0 -1 0 -7 0 0 -1 0 0 0 -1 -1 0 -2 0 0 0 -12 -1 0
0 0 0 0 -10 -31 -15 -28 -38 -12 -24 -34 -53 -20 -44 -24 -1 -1 0 -20 0 0 0 0 0 0 0 0 0 0 0 0 0 0 0 0 0 0 0 -11 0 0 0
0 0 0 -2 0 -1 0 -9 -11 -23 -22 -30 -42 -68 -1 -1 -13 -1 0 0 0 0 0 0 0 0 0 0 0 0 0 0 0 0 0 0 0 0 0 0 0 0 0
0 0 0 0 -1 -2 0 -24 -1 -6 -10 0 -63 -14 -11 -42 0 0 -1 0 -1 0 0 0 0 0 0 0 0 0 0 0 0 0 0 -1 0 0 0 0 0 0 0
0 0 0 0 0 0 0 0 -2 0 -8 0 -1 -13 -3 -3 -57 -37 0 0 0 0 0 0 0 0 0 0 0 0 0 0 0 0 0 0 0 0 0 0 0 0 0
Wind_Speed
34 34 35 33 39 37 32 29 30 29 25 25 25 25 23 26 23 27 31 33 28 19 27 29 17 18 25 23 22 23 22 25 23 24 22 21 21 22 nan nan nan nan nan
37 30 35 36 34 39 37 32 29 33 31 27 25 24 26 27 24 23 22 26 nan nan 25 26 20 21 19 22 23 22 22 23 24 25 nan nan nan nan nan nan nan nan nan
29 35 34 40 37 45 40 39 38 33 32 32 27 26 25 25 27 28 23 20 nan nan 19 24 17 21 14 22 21 21 20 23 23 nan nan nan nan nan nan nan nan nan nan
38 38 42 41 44 40 44 43 40 42 35 35 33 27 26 29 28 26 25 24 22 22 24 32 31 nan 15 20 19 19 24 24 nan nan nan nan nan nan nan nan nan nan nan
43 45 41 45 44 45 48 47 42 43 43 36 33 30 26 28 30 27 24 24 27 29 30 32 nan nan nan 20 22 21 21 nan nan nan nan nan nan nan nan nan nan nan nan
46 49 48 45 48 45 48 49 48 45 47 38 36 35 27 29 31 30 26 30 nan 29 30 32 nan nan nan 22 25 22 21 nan nan nan nan nan nan nan nan nan nan nan nan
51 53 52 46 44 42 42 49 51 48 49 46 44 36 31 29 31 30 28 28 nan nan 35 36 nan nan 27 28 24 17 17 21 nan nan nan nan nan nan nan nan nan nan nan
61 59 51 42 48 49 46 45 51 51 50 47 44 42 35 35 31 28 29 nan nan nan nan nan nan nan 23 23 23 19 16 19 nan nan nan nan nan nan nan nan nan nan nan
55 48 63 41 49 47 41 45 49 52 50 47 40 41 36 34 nan 31 27 28 nan nan nan nan nan 16 22 23 nan nan nan nan nan nan nan nan nan nan nan nan nan nan nan
49 52 50 48 49 49 45 44 48 47 46 45 40 31 29 38 32 nan nan 25 27 nan nan nan nan nan nan 22 25 nan nan nan nan nan nan nan nan nan nan nan nan nan nan
43 40 38 45 50 50 52 51 53 42 43 40 38 37 30 34 29 27 nan nan nan nan nan nan nan nan nan nan 26 nan nan nan nan nan nan nan nan nan nan nan nan nan nan
39 35 39 45 46 57 53 54 60 37 39 38 38 34 36 39 31 26 24 29 nan nan nan nan nan nan nan nan nan nan nan nan nan nan nan nan nan nan nan nan nan nan nan
37 34 37 41 49 49 45 38 54 30 30 36 36 36 37 32 31 24 24 28 nan nan nan nan nan nan nan nan nan nan nan nan nan nan nan nan nan nan nan nan nan nan nan
33 31 31 35 37 40 31 37 40 31 36 32 36 37 37 32 31 25 24 25 nan nan nan nan nan nan nan nan nan nan nan nan nan nan nan nan nan nan nan nan nan nan nan
30 31 32 34 38 38 40 37 40 36 26 30 33 37 35 34 30 28 25 nan nan nan nan nan nan nan nan nan nan nan nan nan nan nan nan nan nan nan nan nan nan nan nan
21 24 30 30 36 33 38 38 35 27 30 29 38 36 29 32 29 26 25 nan nan nan nan nan nan nan nan nan nan nan nan nan nan nan nan nan nan nan nan nan nan nan nan
20 25 32 33 38 33 35 33 29 34 32 37 34 28 27 26 23 24 nan 24 nan nan nan nan nan nan nan nan nan nan nan nan nan nan nan nan nan nan nan nan nan nan nan
24 30 27 29 32 30 32 25 nan 40 29 25 25 27 24 24 19 20 25 nan nan 27 26 nan nan nan nan nan nan nan nan nan nan nan nan nan nan nan nan nan nan nan nan
33 31 29 24 26 28 37 33 nan nan 12 10 21 20 23 23 26 27 28 nan 29 nan nan nan nan nan nan nan nan nan nan nan nan nan nan nan nan nan nan nan nan nan nan
33 32 28 27 26 23 26 32 37 26 23 24 24 24 22 24 nan 26 nan nan nan nan nan nan nan nan nan nan nan nan nan nan nan nan nan nan nan nan nan nan nan nan nan
47 41 33 36 36 38 29 32 36 35 nan 27 nan nan nan 37 nan nan nan nan nan nan nan nan nan nan nan nan nan nan nan nan nan nan nan nan nan nan nan nan nan nan nan
nan nan 48 45 42 nan nan nan nan 43 42 nan nan nan 39 nan nan nan nan nan nan nan nan nan nan nan nan nan nan nan nan nan nan nan nan nan nan nan nan nan nan nan nan
nan nan nan nan nan nan nan nan nan nan nan nan nan nan nan nan nan nan nan nan nan nan nan nan nan nan nan nan nan nan nan nan nan nan nan nan nan nan nan nan nan nan nan
nan nan nan nan nan nan nan nan nan nan nan nan nan nan nan nan nan nan nan nan nan nan nan nan nan nan nan nan nan nan nan nan nan nan nan nan nan nan nan nan nan nan nan
nan nan nan nan nan nan nan nan nan nan nan nan nan nan nan nan nan nan nan nan nan nan nan nan nan nan nan nan nan nan nan nan nan nan nan nan nan nan nan nan nan nan nan
nan nan nan nan nan nan nan nan nan nan nan nan nan nan nan nan nan nan nan nan nan nan nan nan nan nan nan nan nan nan nan nan nan nan nan nan nan nan nan nan nan nan nan
Wind_Direction
276 276 276 276 283 279 290 293 294 294 296 295 295 299 305 304 312 294 296 289 279 284 305 283 255 255 246 249 251 253 260 257 256 266 267 275 286 294 nan nan nan nan nan
270 268 276 280 274 280 283 288 289 291 291 293 291 294 295 297 299 294 292 292 nan nan 303 283 266 228 251 256 252 256 258 265 257 264 nan nan nan nan nan nan nan nan nan
278 282 274 269 274 277 280 281 286 287 288 286 284 286 288 289 288 295 285 283 nan nan 288 276 263 220 245 258 258 264 268 265 266 nan nan nan nan nan nan nan nan nan nan
279 276 274 277 280 274 277 279 286 285 285 283 278 279 279 281 283 286 280 276 261 270 270 256 241 nan 267 256 261 264 264 264 nan nan nan nan nan nan nan nan nan nan nan
287 280 273 273 276 275 275 273 281 282 281 282 276 274 272 272 275 283 281 280 272 263 271 269 nan nan nan 260 258 262 269 nan nan nan nan nan nan nan nan nan nan nan nan
284 282 282 283 276 272 272 277 279 281 278 279 274 265 265 264 265 273 277 275 nan 265 264 254 nan nan nan 233 250 249 270 nan nan nan nan nan nan nan nan nan nan nan nan
278 278 277 276 268 276 280 277 275 276 273 275 266 262 256 256 273 279 278 275 nan nan 266 258 nan nan 213 238 247 252 268 281 nan nan nan nan nan nan nan nan nan nan nan
267 267 271 260 277 275 281 275 274 270 264 267 261 258 255 258 263 273 270 nan nan nan nan nan nan nan 224 229 233 248 273 284 nan nan nan nan nan nan nan nan nan nan nan
269 255 270 261 267 267 276 272 274 272 269 263 261 258 256 256 nan 269 280 274 nan nan nan nan nan 214 231 229 nan nan nan nan nan nan nan nan nan nan nan nan nan nan nan
263 262 268 261 261 262 269 270 268 264 266 265 261 257 253 253 265 nan nan 273 268 nan nan nan nan nan nan 226 240 nan nan nan nan nan nan nan nan nan nan nan nan nan nan
258 261 259 255 253 258 260 264 255 255 258 258 261 256 259 260 266 265 nan nan nan nan nan nan nan nan nan nan 231 nan nan nan nan nan nan nan nan nan nan nan nan nan nan
257 260 249 245 249 255 264 268 270 246 246 252 256 258 262 270 268 267 259 264 nan nan nan nan nan nan nan nan nan nan nan nan nan nan nan nan nan nan nan nan nan nan nan
254 257 255 249 247 253 261 270 275 217 250 243 259 259 259 269 263 260 251 257 nan nan nan nan nan nan nan nan nan nan nan nan nan nan nan nan nan nan nan nan nan nan nan
250 248 251 248 249 246 249 254 261 254 254 249 257 254 257 261 258 259 252 256 nan nan nan nan nan nan nan nan nan nan nan nan nan nan nan nan nan nan nan nan nan nan nan
243 242 244 246 246 244 247 251 242 243 243 253 253 259 255 255 252 252 253 nan nan nan nan nan nan nan nan nan nan nan nan nan nan nan nan nan nan nan nan nan nan nan nan
243 252 260 251 255 247 259 259 248 242 247 242 238 248 254 252 250 247 253 nan nan nan nan nan nan nan nan nan nan nan nan nan nan nan nan nan nan nan nan nan nan nan nan
224 244 266 252 251 259 254 255 265 232 229 223 230 245 246 249 245 248 nan 262 nan nan nan nan nan nan nan nan nan nan nan nan nan nan nan nan nan nan nan nan nan nan nan
227 255 251 254 258 250 269 252 nan 199 196 210 230 236 238 232 242 253 255 nan nan 271 268 nan nan nan nan nan nan nan nan nan nan nan nan nan nan nan nan nan nan nan nan
238 234 235 253 252 262 259 266 nan nan 228 230 237 239 244 248 248 252 261 nan 266 nan nan nan nan nan nan nan nan nan nan nan nan nan nan nan nan nan nan nan nan nan nan
227 233 237 248 249 260 260 274 277 232 249 239 241 242 246 249 nan 259 nan nan nan nan nan nan nan nan nan nan nan nan nan nan nan nan nan nan nan nan nan nan nan nan nan
225 226 233 234 230 229 243 261 249 247 nan 244 nan nan nan 238 nan nan nan nan nan nan nan nan nan nan nan nan nan nan nan nan nan nan nan nan nan nan nan nan nan nan nan
nan nan 225 227 230 nan nan nan nan 240 234 nan nan nan 239 nan nan nan nan nan nan nan nan nan nan nan nan nan nan nan nan nan nan nan nan nan nan nan nan nan nan nan nan
nan nan nan nan nan nan nan nan nan nan nan nan nan nan nan nan nan nan nan nan nan nan nan nan nan nan nan nan nan nan nan nan nan nan nan nan nan nan nan nan nan nan nan
nan nan nan nan nan nan nan nan nan nan nan nan nan nan nan nan nan nan nan nan nan nan nan nan nan nan nan nan nan nan nan nan nan nan nan nan nan nan nan nan nan nan nan
nan nan nan nan nan nan nan nan nan nan nan nan nan nan nan nan nan nan nan nan nan nan nan nan nan nan nan nan nan nan nan nan nan nan nan nan nan nan nan nan nan nan nan
nan nan nan nan nan nan nan nan nan nan nan nan nan nan nan nan nan nan nan nan nan nan nan nan nan nan nan nan nan nan nan nan nan nan nan nan nan nan nan nan nan nan nan